Decatur Airport
KDEC : now visible

Airfield :











YOU CAN JOIN US ON...

 
LOGIN :

Register | Disclaimer

   EN    FR    IT 

 









Legend :    VFR   Marginal VFR   IFR   Intensive IFR   Very Intensive IFR
Visi :
Ceiling :
>= 8 km
>= 3000ft
5 to 8 km
1000 to 3000 ft
1500m to 5 km
500 to 1000 ft
800 to 1500m
200 to 500 ft
< 800m
< 200 ft
Symbols :   Thunderstorms  Fog  Heavy snow  Heavy precipitations  Wind > 20 kt






- Airport Elevation : 682 ft
- IATA code : DEC


KDEC - Decatur

CURRENT METAR :
  • 201454Z 24006KT 10SM CLR M06/M09 A3033 RMK T10611089

EXPIRED METARs :
  • 201354Z 23004KT 10SM CLR M08/M09 A3032 RMK A02 SLP277

TAF KDEC
Valid from the 20 at 12:00 until the 21 at 12:00 UTC


201120Z 2012/2112 VRB03KT P6SM FEW250
FM202100 19013G22KT P6SM SKC
FM210000 20014KT P6SM SKC WS020/22040KT
FM210500 23012G21KT P6SM SKC WS020/26045KT
FM211000 25008KT P6SM FEW250
KZKC FIR / North America



MET'MAP, your aeronautical weather chart ! - Copyright ORBIFLY December 2007 - Disclaimer

ORBIFLY MET'MAP TEAM :

Programming & Development : Alexandra Zaïnal
Concept & original design : Baudouin d'Aumeries
Assistance for programming : Marc-Olivier Méhu
Technical & hardware support : Manuel Goepfert

Contact : metmap@orbifly.com




SOURCES & CREDITS :

   NOAA       Earth
Advisory